Stanton, MN

3:38 AM CST on November 22, 2017 (GMT -0600)
Stanton

Weather History for KSYN - September, 2013

Change the Weather History Date:

Thursday, September 5, 2013

  Actual Average (KLVN) Record (KLVN)
Temperature  
Mean Temperature 70 °F -  
Max Temperature 82 °F 76 °F 94 °F (1960)
Min Temperature 57 °F 53 °F 38 °F (1974)
Cooling Degree Days 4    
Growing Degree Days 20 (Base 50)    
Moisture  
Dew Point 61 °F    
Average Humidity 72    
Maximum Humidity 91    
Minimum Humidity 54    
Precipitation  
Precipitation 0.00 in - - ()
Sea Level Pressure  
Sea Level Pressure 30.17 in    
Wind  
Wind Speed 3 mph (ESE)    
Max Wind Speed 9 mph    
Max Gust Speed -    
Visibility 10 miles    
Events      
Averages and records for this station are not official NWS values.
T = Trace of Precipitation, MM = Missing Value Source: NWS Daily Summary

Daily Weather History Graph

Daily Weather History Graph

Search for Another Location

Airport or City:

Trip Planner

Search our weather history database for the weather conditions in past years. The results will help you decide how hot, cold, wet, or windy it might be!

Date:

Astronomy

Sep. 05, 2013 Rise Set
Actual Time 6:39 AM CDT 7:40 PM CDT
Civil Twilight 6:09 AM CDT 8:10 PM CDT
Nautical Twilight 5:34 AM CDT 8:45 PM CDT
Astronomical Twilight 4:57 AM CDT 9:22 PM CDT
Moon 6:54 AM CDT (9/5) 7:29 PM CDT (9/5)
Length of Visible Light 14h 00m
Length of Day
13h 01m
New Moon, 0% of the Moon is Illuminated
Sep 5
New Moon
Sep 12
First Quarter
Sep 19
Full
Sep 26
Last Quarter
Oct 4
New

Hourly Weather History & Observations

Time (CDT) Temp. Heat Index Dew Point Humidity Pressure Visibility Wind Dir Wind Speed Gust Speed Precip Events Conditions
12:12 AM 63.1 °F - 59.2 °F 87% 30.15 in 10.0 mi Calm Calm - N/A   Clear
12:32 AM 63.5 °F - 59.4 °F 86% 30.15 in 10.0 mi Calm Calm - N/A   Clear
12:52 AM 62.8 °F - 59.2 °F 88% 30.16 in 10.0 mi Calm Calm - N/A   Clear
1:12 AM 62.6 °F - 59.0 °F 88% 30.16 in 10.0 mi NNE 3.5 mph - N/A   Clear
1:32 AM 61.7 °F - 58.1 °F 88% 30.16 in 10.0 mi NE 3.5 mph - N/A   Clear
1:52 AM 62.4 °F - 58.1 °F 86% 30.16 in 10.0 mi NE 3.5 mph - N/A   Clear
2:12 AM 61.3 °F - 57.2 °F 86% 30.16 in 10.0 mi ENE 3.5 mph - N/A   Clear
2:32 AM 61.0 °F - 56.8 °F 86% 30.16 in 10.0 mi ENE 3.5 mph - N/A   Clear
2:51 AM 60.8 °F - 56.3 °F 85% 30.17 in 10.0 mi NE 3.5 mph - N/A   Clear
3:12 AM 60.1 °F - 55.6 °F 85% 30.16 in 10.0 mi Calm Calm - N/A   Clear
3:32 AM 60.3 °F - 55.4 °F 84% 30.17 in 10.0 mi ENE 3.5 mph - N/A   Clear
3:51 AM 59.4 °F - 55.2 °F 86% 30.17 in 10.0 mi Calm Calm - N/A   Clear
4:12 AM 58.5 °F - 54.5 °F 87% 30.18 in 10.0 mi Calm Calm - N/A   Clear
4:32 AM 59.9 °F - 55.2 °F 84% 30.18 in 10.0 mi Calm Calm - N/A   Scattered Clouds
4:52 AM 58.5 °F - 55.2 °F 89% 30.18 in 10.0 mi Calm Calm - N/A   Scattered Clouds
5:12 AM 57.6 °F - 55.0 °F 91% 30.17 in 10.0 mi NE 3.5 mph - N/A   Clear
5:32 AM 57.7 °F - 54.7 °F 90% 30.18 in 10.0 mi NE 4.6 mph - N/A   Clear
5:52 AM 57.2 °F - 54.0 °F 89% 30.18 in 10.0 mi ENE 4.6 mph - N/A   Clear
6:12 AM 57.9 °F - 54.5 °F 88% 30.18 in 10.0 mi NE 4.6 mph - N/A   Clear
6:32 AM 57.4 °F - 54.3 °F 90% 30.20 in 10.0 mi Calm Calm - N/A   Mostly Cloudy
6:52 AM 59.2 °F - 55.8 °F 88% 30.20 in 10.0 mi Calm Calm - N/A   Mostly Cloudy
7:12 AM 60.4 °F - 55.9 °F 85% 30.20 in 10.0 mi Calm Calm - N/A   Scattered Clouds
7:32 AM 61.5 °F - 56.3 °F 83% 30.20 in 10.0 mi Calm Calm - N/A   Scattered Clouds
7:52 AM 62.6 °F - 56.3 °F 80% 30.21 in 10.0 mi Calm Calm - N/A   Scattered Clouds
8:12 AM 63.9 °F - 56.1 °F 76% 30.21 in 10.0 mi East 3.5 mph - N/A   Scattered Clouds
8:32 AM 64.8 °F - 56.1 °F 74% 30.21 in 10.0 mi East 3.5 mph - N/A   Mostly Cloudy
8:52 AM 65.8 °F - 56.5 °F 72% 30.20 in 10.0 mi East 3.5 mph - N/A   Overcast
9:12 AM 66.7 °F - 57.2 °F 71% 30.21 in 10.0 mi East 4.6 mph - N/A   Overcast
9:32 AM 68.4 °F - 58.1 °F 70% 30.20 in 10.0 mi East 4.6 mph - N/A   Scattered Clouds
9:52 AM 70.0 °F - 58.6 °F 67% 30.21 in 10.0 mi East 3.5 mph - N/A   Clear
10:12 AM 71.6 °F - 59.5 °F 66% 30.21 in 10.0 mi East 5.8 mph - N/A   Clear
10:32 AM 72.7 °F - 60.1 °F 64% 30.21 in 10.0 mi East 5.8 mph - N/A   Clear
10:52 AM 74.1 °F - 61.0 °F 63% 30.21 in 10.0 mi SE 4.6 mph - N/A   Scattered Clouds
11:12 AM 74.5 °F - 61.2 °F 63% 30.21 in 10.0 mi ESE 5.8 mph - N/A   Scattered Clouds
11:32 AM 76.1 °F - 61.7 °F 61% 30.21 in 10.0 mi ESE 6.9 mph - N/A   Clear
11:51 AM 77.5 °F - 61.7 °F 58% 30.21 in 10.0 mi East 5.8 mph - N/A   Clear
12:12 PM 78.1 °F - 61.7 °F 57% 30.21 in 10.0 mi East 9.2 mph - N/A   Clear
12:32 PM 78.8 °F - 61.7 °F 56% 30.21 in 10.0 mi ESE 9.2 mph - N/A   Scattered Clouds
12:52 PM 78.1 °F - 61.0 °F 56% 30.20 in 10.0 mi SE 5.8 mph - N/A   Scattered Clouds
1:12 PM 79.7 °F - 61.9 °F 54% 30.20 in 10.0 mi East 6.9 mph - N/A   Clear
1:32 PM 79.5 °F - 62.2 °F 55% 30.20 in 10.0 mi East 5.8 mph - N/A   Scattered Clouds
1:52 PM 80.1 °F 81.4 °F 62.8 °F 55% 30.19 in 10.0 mi ESE 6.9 mph - N/A   Scattered Clouds
2:12 PM 80.8 °F 82.0 °F 63.0 °F 54% 30.18 in 10.0 mi ENE 6.9 mph - N/A   Clear
2:32 PM 81.3 °F 82.6 °F 63.3 °F 54% 30.18 in 10.0 mi East 5.8 mph - N/A   Clear
2:52 PM 81.5 °F 82.9 °F 63.7 °F 55% 30.17 in 10.0 mi SE 6.9 mph - N/A   Clear
3:12 PM 81.5 °F 82.9 °F 63.9 °F 55% 30.17 in 10.0 mi ESE 5.8 mph - N/A   Clear
3:32 PM 81.9 °F 83.4 °F 64.2 °F 55% 30.16 in 10.0 mi SE 8.1 mph - N/A   Clear
3:52 PM 81.7 °F 83.3 °F 64.6 °F 56% 30.16 in 10.0 mi East 9.2 mph - N/A   Clear
4:12 PM 82.0 °F 83.6 °F 64.6 °F 55% 30.15 in 10.0 mi ESE 6.9 mph - N/A   Clear
4:32 PM 81.3 °F 83.0 °F 64.8 °F 57% 30.15 in 10.0 mi ESE 8.1 mph - N/A   Clear
4:52 PM 81.9 °F 83.7 °F 65.3 °F 57% 30.15 in 10.0 mi ESE 6.9 mph - N/A   Clear
5:12 PM 81.5 °F 83.3 °F 65.1 °F 57% 30.14 in 10.0 mi ESE 8.1 mph - N/A   Clear
5:32 PM 81.7 °F 83.6 °F 65.7 °F 58% 30.14 in 10.0 mi East 8.1 mph - N/A   Clear
5:52 PM 80.6 °F 82.5 °F 65.7 °F 60% 30.14 in 10.0 mi ESE 6.9 mph - N/A   Clear
6:12 PM 80.1 °F 82.0 °F 65.7 °F 61% 30.14 in 10.0 mi ESE 5.8 mph - N/A   Clear
6:32 PM 79.2 °F - 65.5 °F 63% 30.13 in 10.0 mi ESE 5.8 mph - N/A   Clear
6:52 PM 78.3 °F - 65.3 °F 64% 30.13 in 10.0 mi ESE 5.8 mph - N/A   Clear
7:12 PM 77.0 °F - 65.3 °F 67% 30.13 in 10.0 mi ESE 5.8 mph - N/A   Clear
7:32 PM 76.1 °F - 65.3 °F 69% 30.13 in 10.0 mi ESE 4.6 mph - N/A   Clear
7:52 PM 74.8 °F - 65.3 °F 72% 30.13 in 10.0 mi ESE 4.6 mph - N/A   Clear
8:12 PM 74.3 °F - 65.3 °F 73% 30.13 in 10.0 mi ESE 4.6 mph - N/A   Clear
8:32 PM 73.6 °F - 65.1 °F 75% 30.13 in 10.0 mi ESE 3.5 mph - N/A   Clear
8:52 PM 73.4 °F - 64.8 °F 74% 30.13 in 10.0 mi ESE 3.5 mph - N/A   Clear
9:12 PM 72.7 °F - 64.8 °F 76% 30.14 in 10.0 mi SE 4.6 mph - N/A   Clear
9:32 PM 72.5 °F - 64.9 °F 77% 30.13 in 10.0 mi SE 5.8 mph - N/A   Clear
9:52 PM 73.0 °F - 65.3 °F 77% 30.13 in 10.0 mi SSE 8.1 mph - N/A   Clear
10:12 PM 72.9 °F - 65.3 °F 77% 30.12 in 10.0 mi SSE 8.1 mph - N/A   Clear
10:32 PM 72.9 °F - 65.5 °F 78% 30.13 in 10.0 mi SSE 5.8 mph - N/A   Clear
10:52 PM 72.5 °F - 65.5 °F 79% 30.12 in 10.0 mi SSE 5.8 mph - N/A   Clear
11:12 PM 72.5 °F - 65.7 °F 79% 30.12 in 10.0 mi SSE 6.9 mph - N/A   Clear
11:32 PM 72.1 °F - 65.7 °F 80% 30.12 in 10.0 mi SSE 9.2 mph - N/A   Clear
11:52 PM 71.6 °F - 65.8 °F 82% 30.11 in 10.0 mi South 9.2 mph - N/A   Clear